This is the latest recevied weather packets stored in our database for station/object HP1MRA-15. If no packets are shown the sender has not sent any weather packets the latest 10 day(s).
| Time | Temp. | Humidity | Pressure | Rain* | Wind** | Luminosity | Snow |
|---|---|---|---|---|---|---|---|
| 1777913594 | 35.56° C | 54% | 1003 hPa | 0 mm | - | - | - |
| 1777913295 | 35.56° C | 55% | 1003 hPa | 0 mm | - | - | - |
| 1777912994 | 35.56° C | 53% | 1003 hPa | 0 mm | - | - | - |
| 1777912395 | 36.11° C | 54% | 1003.1 hPa | 0 mm | - | - | - |
| 1777912094 | 36.67° C | 51% | 1003.1 hPa | 0 mm | - | - | - |
| 1777911794 | 37.78° C | 49% | 1003.2 hPa | 0 mm | - | - | - |
| 1777911495 | 38.89° C | 50% | 1003.1 hPa | 0 mm | - | - | - |
| 1777911194 | 37.78° C | 51% | 1003.3 hPa | 0 mm | - | - | - |
| 1777910894 | 37.22° C | 51% | 1003.3 hPa | 0 mm | - | - | - |
| 1777910593 | 37.78° C | 50% | 1003.3 hPa | 0 mm | - | - | - |
| 1777910294 | 38.33° C | 50% | 1003.4 hPa | 0 mm | - | - | - |
| 1777909994 | 37.78° C | 53% | 1003.5 hPa | 0 mm | - | - | - |
| 1777909693 | 37.22° C | 53% | 1003.5 hPa | 0 mm | - | - | - |
| 1777909394 | - | - | 1003.5 hPa | 0 mm | - | - | - |
| 1777909094 | 36.67° C | 52% | 1003.5 hPa | 0 mm | - | - | - |
| 1777908794 | 36.11° C | 55% | 1003.5 hPa | 0 mm | - | - | - |
| 1777908493 | 35.56° C | 56% | 1003.6 hPa | 0 mm | - | - | - |
| 1777908194 | 34.44° C | 57% | 1003.6 hPa | 0 mm | - | - | - |
| 1777907894 | 34.44° C | 57% | 1003.6 hPa | 0 mm | - | - | - |
| 1777907593 | 35° C | 57% | 1003.6 hPa | 0 mm | - | - | - |
| 1777907294 | 35° C | 57% | 1003.6 hPa | 0 mm | - | - | - |
| 1777906994 | 35.56° C | 56% | 1003.5 hPa | 0 mm | - | - | - |
| 1777906693 | 35.56° C | 55% | 1003.6 hPa | 0 mm | - | - | - |
| 1777906393 | 36.67° C | 55% | 1003.6 hPa | 0 mm | - | - | - |
| 1777906094 | 36.67° C | 56% | 1003.5 hPa | 0 mm | - | - | - |
* Rain latest hour (hover to see other rain measurements)
** Current wind speed in m/s (hover to see current wind gust speed)